Vorticity
10 8 7 8 8 6 4 4 6 6 6 7 6 5 6 8 7 7 7 8 8 8 8 6 5 5 5 6 7 6 9 14 14 10 8 7 5 4 3 3 4 5 5 5 6 6 6 7 6 8 12 15 17 15 8 4 5 6 5 4 4 3 4 5 5 5 5 5 5 5 4 5 3 1 2 2 3 5 4 3 4 4 4 3 2
11 10 9 8 9 9 6 4 5 7 6 7 7 5 5 6 6 7 7 8 8 7 7 8 6 6 6 6 7 7 9 14 14 8 6 6 4 4 4 4 5 5 5 6 6 6 6 6 6 6 7 9 14 17 15 9 5 5 6 5 3 3 4 5 5 5 6 6 5 5 5 4 1 2 3 1 2 4 3 3 5 4 4 3 2
13 10 9 9 9 9 8 5 3 5 7 8 7 6 6 5 5 7 7 6 7 7 6 7 7 7 6 4 6 7 9 14 14 8 5 5 4 4 4 4 4 4 5 6 7 6 6 6 6 6 7 6 7 12 16 16 11 6 6 5 3 3 4 4 5 5 6 6 6 5 4 4 2 2 4 1 1 4 3 3 5 5 4 3 3
14 11 9 8 9 9 8 6 4 4 6 8 7 6 6 5 5 6 6 5 5 5 5 6 5 5 5 3 5 8 8 13 14 8 5 4 4 4 4 4 4 4 5 6 7 7 7 7 7 7 7 7 6 7 10 15 17 13 8 6 5 5 3 4 5 5 6 6 7 5 4 5 3 2 2 2 2 3 4 3 4 5 4 2 2
14 13 10 8 8 9 9 8 6 4 5 6 7 7 5 5 6 6 5 5 5 4 5 6 4 3 4 3 5 9 9 11 13 11 7 5 3 4 4 4 3 4 5 5 6 7 7 7 8 8 7 7 7 7 6 9 14 16 14 9 6 5 4 3 5 6 6 6 6 7 5 4 4 2 2 4 2 2 5 4 2 3 3 2 2
14 13 12 9 8 7 8 9 8 6 6 5 5 6 6 5 5 6 6 5 5 5 5 5 4 4 4 3 5 9 10 10 12 12 9 6 4 4 4 4 3 3 4 4 5 6 7 7 7 7 8 7 7 7 7 8 9 12 15 14 11 8 5 3 4 5 6 6 6 7 6 4 5 4 3 4 3 2 5 5 3 3 4 4 5
13 14 12 11 10 8 7 9 10 8 7 5 4 4 6 7 6 5 6 6 4 5 5 5 5 4 4 4 5 8 11 11 11 12 12 9 4 4 4 3 4 3 3 4 4 4 5 6 7 7 9 9 8 7 7 7 7 9 12 14 14 12 8 5 4 4 5 6 6 7 7 5 6 6 4 2 2 1 3 4 4 3 2 3 4
9 12 13 12 12 11 9 8 9 10 9 7 5 4 4 6 7 5 5 7 6 6 5 5 6 5 5 5 6 7 9 11 11 12 14 12 6 4 4 3 3 3 3 4 4 4 4 5 5 6 7 10 10 9 8 6 7 8 9 11 13 14 12 9 6 4 4 5 6 8 9 7 7 8 6 4 2 1 2 3 3 1 -1 2 5
6 8 10 12 13 13 12 10 8 8 9 8 6 6 5 5 6 6 6 6 6 6 6 5 5 6 6 6 7 8 8 10 12 12 13 13 9 5 3 3 3 3 3 3 3 3 4 4 5 5 5 7 10 11 10 8 7 6 7 9 10 12 13 13 10 5 3 4 4 7 9 9 9 9 7 7 4 2 2 1 1 1 0 2 4
4 6 7 7 9 12 14 14 13 9 8 10 8 7 6 5 5 6 6 6 6 6 6 6 6 6 6 7 8 9 8 8 10 12 12 13 11 7 4 3 3 2 2 3 4 4 3 3 4 5 4 5 6 8 10 10 9 7 7 8 9 10 11 13 13 9 6 4 2 4 6 8 12 13 9 8 7 4 3 1 -1 -0 0 2 3
2 5 8 5 2 7 12 16 19 15 10 9 10 10 9 7 6 5 5 6 6 6 6 6 6 6 5 6 7 8 8 7 8 11 12 12 11 9 6 4 3 2 1 2 3 4 4 3 3 4 5 4 4 5 8 11 11 10 9 8 7 8 9 11 13 12 11 7 3 3 2 2 9 16 12 9 10 8 5 3 -0 -1 -0 1 2
5 3 5 5 1 5 9 11 16 18 14 9 8 10 11 10 8 6 5 5 5 5 6 6 6 6 5 5 6 7 7 6 6 8 10 11 11 10 8 5 3 2 1 1 2 3 3 4 4 4 4 3 3 4 6 7 10 11 11 10 9 8 7 8 9 11 12 11 7 5 3 -1 3 12 13 10 11 11 9 7 4 2 1 1 1
9 6 3 4 5 7 7 6 10 14 14 12 7 7 9 10 10 8 6 5 4 4 5 5 5 6 5 5 5 5 5 5 5 6 8 10 11 10 9 8 5 2 1 0 -0 0 1 2 3 5 5 4 3 4 4 5 7 10 11 12 12 10 8 6 6 7 10 12 11 8 7 7 4 7 11 10 9 11 12 10 9 8 6 6 6
11 12 4 1 4 6 2 4 10 12 13 13 9 6 8 9 11 11 7 5 4 4 5 4 5 5 5 5 5 4 4 5 5 5 5 7 9 10 10 10 8 6 3 1 -0 0 0 -0 1 4 6 5 4 3 3 4 5 7 9 10 11 12 12 9 6 5 5 9 11 8 8 15 12 5 7 8 5 7 11 11 11 12 11 10 10
11 12 4 2 6 4 -1 3 12 13 11 13 11 8 8 8 10 11 10 8 7 5 4 4 4 4 4 4 5 5 4 4 5 5 5 5 5 8 10 10 11 10 7 5 2 1 0 -0 -1 -0 3 6 6 4 3 4 5 6 6 8 9 10 12 12 9 7 4 4 8 6 6 16 18 9 6 6 3 2 6 8 9 10 10 8 7
9 9 2 3 8 5 0 7 14 11 7 9 11 10 8 8 9 11 11 10 9 8 7 6 5 4 4 4 4 5 5 4 4 4 5 5 5 5 7 8 10 11 10 8 6 3 2 1 -1 -1 1 4 6 5 4 3 4 5 5 5 6 7 9 11 12 11 9 5 5 5 4 11 17 12 7 6 4 2 4 5 6 7 7 5 4
11 13 5 4 8 6 3 8 12 9 5 6 10 12 11 9 8 9 10 11 10 10 10 9 8 5 4 4 4 5 6 5 4 5 4 5 5 6 6 6 7 8 9 9 8 6 4 3 2 3 3 3 4 5 6 4 3 4 5 4 4 5 7 8 9 12 13 12 9 7 4 5 11 12 8 7 6 6 7 5 3 5 7 5 3
10 13 8 5 8 6 2 4 10 13 11 9 10 12 12 11 9 7 8 10 10 10 10 10 10 8 7 6 5 6 6 4 4 5 4 4 5 6 6 7 7 7 7 8 8 7 6 5 5 4 5 5 4 5 6 6 3 3 4 5 5 3 4 6 7 7 10 13 14 13 9 5 6 8 7 7 7 9 10 7 4 6 8 6 5
10 12 10 11 11 5 -3 -2 7 15 15 10 9 11 11 13 12 9 9 9 9 9 9 9 10 9 9 8 7 6 7 6 5 5 4 3 4 4 5 6 7 8 7 7 7 7 7 7 6 5 5 5 5 4 5 7 6 3 3 5 5 4 3 6 7 6 7 9 12 15 13 9 6 5 5 5 6 8 9 8 7 8 8 5 6
8 9 10 13 13 5 -2 -2 5 14 15 8 5 9 11 12 13 12 11 10 8 8 9 9 9 10 9 9 8 8 8 7 7 6 4 3 3 3 4 4 5 6 7 7 8 8 8 7 6 5 5 5 5 4 3 4 6 5 3 3 4 5 6 7 7 6 6 6 8 12 14 12 9 7 5 5 4 5 7 7 7 7 7 6 5
7 6 6 8 8 5 1 2 7 13 13 6 2 6 8 11 14 14 13 11 9 8 9 9 9 9 9 9 9 9 9 8 8 8 6 5 4 4 4 4 4 4 5 6 7 7 8 8 7 6 5 5 5 5 4 3 4 5 6 6 4 4 6 6 6 6 6 6 6 8 10 12 11 9 6 5 4 4 5 5 5 5 6 6 5
8 8 8 6 5 6 5 4 8 10 7 2 3 6 8 10 12 13 13 13 11 10 10 10 10 10 9 9 10 10 10 9 9 9 8 8 7 6 5 5 6 6 6 7 6 5 6 7 8 8 8 6 5 5 5 4 3 4 6 6 4 4 5 5 5 5 5 5 5 7 8 9 10 10 9 7 6 5 5 6 7 7 6 6 6
6 9 14 9 2 5 7 4 6 9 4 0 3 6 6 9 11 12 12 13 12 11 10 9 10 10 9 9 9 10 10 10 10 10 11 11 10 10 9 9 8 7 7 8 8 7 6 7 8 9 9 9 9 8 7 5 4 5 6 6 5 5 5 4 4 5 5 5 6 7 8 9 10 10 10 9 9 9 9 8 7 7 7 6 5
7 6 11 13 7 3 3 2 5 10 8 4 6 8 6 6 8 10 12 13 13 12 10 10 10 10 10 10 10 9 9 9 9 9 9 9 10 11 12 12 11 11 10 11 11 10 8 7 7 9 9 10 10 10 10 9 7 6 6 6 6 5 5 5 4 4 4 5 5 6 8 9 10 10 10 9 9 10 9 7 6 6 6 5 5
19 11 2 8 12 5 0 1 5 11 10 5 5 8 8 7 7 7 9 11 13 14 12 12 11 10 10 10 11 11 9 7 7 7 7 8 8 9 10 11 12 12 12 13 13 12 10 9 7 8 9 9 9 10 11 12 11 10 7 6 7 7 7 5 4 4 5 5 4 5 8 9 9 10 11 10 9 8 7 6 6 6 6 9 12
28 22 5 6 12 9 5 6 7 10 11 7 4 4 5 7 7 6 6 7 10 13 13 12 13 12 12 11 13 13 11 8 7 7 7 7 8 9 9 9 10 10 11 11 11 11 12 11 10 9 9 9 8 10 12 12 9 9 10 10 10 9 7 6 6 5 6 5 3 4 7 8 10 12 12 11 10 9 8 7 8 10 12 13 12
19 17 6 6 12 12 10 10 14 19 21 13 -2 -12 -5 9 11 6 5 5 6 9 10 10 11 12 12 12 13 13 12 11 10 10 10 10 10 11 10 8 7 7 7 8 8 8 9 11 10 7 6 6 6 8 12 10 7 8 11 12 11 10 8 8 7 7 7 6 4 5 6 8 10 12 12 12 12 13 13 13 14 14 11 6 3
10 8 7 9 13 14 11 10 15 25 33 27 0 -21 -10 11 13 6 4 4 2 4 7 7 7 8 8 8 7 8 10 11 11 12 12 9 8 8 7 7 7 6 6 7 6 5 6 9 10 9 7 7 6 7 8 6 5 6 8 10 12 11 9 8 9 10 9 6 3 4 7 10 12 13 13 14 15 16 15 13 11 7 2 1 3
8 5 8 10 10 12 15 14 10 11 23 32 20 2 3 13 11 6 6 4 1 2 3 3 5 5 4 3 3 4 7 7 7 8 9 7 5 5 5 6 7 7 7 7 6 4 5 8 13 13 11 9 7 7 7 6 6 6 8 11 12 11 9 10 10 10 9 6 5 6 8 11 13 14 14 14 12 10 8 6 4 3 2 3 5
12 6 6 7 7 10 16 16 9 3 6 13 15 12 11 12 10 7 5 3 3 4 2 2 3 3 2 3 3 3 4 4 4 6 6 6 5 5 6 8 9 9 9 9 8 6 5 8 13 15 14 12 10 9 9 8 6 7 9 10 11 11 11 10 9 11 11 8 5 7 10 14 14 12 10 8 5 4 3 2 2 3 3 4 3
11 5 3 4 5 8 11 9 6 6 6 5 5 6 6 6 7 6 4 4 5 5 3 3 2 2 3 4 6 7 6 3 3 6 7 6 5 5 6 7 7 8 9 9 10 10 8 7 11 13 14 13 11 10 11 11 10 10 10 8 9 12 12 10 10 12 11 8 7 9 12 13 12 8 5 3 2 4 4 3 3 3 3 4 3
7 5 7 8 6 7 10 6 2 4 7 7 6 5 3 3 3 4 6 8 8 9 8 6 4 4 4 4 6 9 10 7 5 5 5 6 6 5 5 5 6 9 9 7 9 12 12 10 10 11 13 15 13 12 13 13 12 11 9 8 9 10 10 11 11 11 12 11 8 8 12 12 9 5 2 -0 1 5 5 4 4 3 2 3 2
8 5 8 10 6 6 10 8 2 3 6 7 6 5 5 6 6 6 9 11 11 11 10 8 7 7 6 4 4 5 6 7 6 4 2 4 5 6 6 5 6 9 9 5 5 9 13 14 14 13 14 14 13 13 14 14 14 12 10 9 10 9 9 9 8 10 13 9 1 7 17 13 2 -1 -1 -4 -1 5 6 2 1 1 0 2 2
11 6 7 11 8 7 10 11 9 9 9 8 7 6 6 9 12 11 9 8 9 10 10 10 8 6 6 6 5 5 6 6 5 4 4 3 3 4 6 7 7 7 8 6 4 7 11 14 15 16 16 14 13 12 13 14 14 12 10 10 10 9 6 5 6 10 13 8 8 22 27 7 -8 -0 7 0 -1 5 5 1 1 2 2 3 3
14 11 8 9 9 8 10 11 13 16 15 9 5 4 4 7 10 8 3 3 5 7 9 10 10 7 7 6 4 4 5 4 4 5 5 5 4 3 4 7 8 7 7 7 7 9 10 11 12 14 15 14 13 12 14 16 14 11 9 7 9 9 5 2 5 12 14 12 15 24 23 8 0 9 11 1 -2 4 5 2 2 3 3 4 3
15 14 6 1 1 5 11 12 12 16 16 10 4 1 0 3 4 2 1 2 3 3 4 7 9 8 8 8 5 2 1 1 3 5 5 6 6 3 3 8 9 5 5 8 10 10 10 10 10 12 13 13 13 13 16 17 12 7 5 5 9 12 6 1 6 13 13 11 11 13 15 11 6 8 13 7 1 3 4 1 0 4 6 4 1
13 12 1 -7 -6 3 12 14 13 12 12 10 7 2 -4 -2 1 1 2 2 1 1 2 4 4 3 3 5 5 3 3 5 7 9 9 8 6 3 3 8 9 5 3 4 8 12 13 10 9 10 11 12 12 13 16 16 10 6 8 9 11 11 5 2 8 13 10 8 10 16 20 13 -1 0 8 1 -9 -1 11 8 4 9 10 3 -2
12 7 1 -4 -4 5 14 14 12 12 10 8 11 9 2 -1 -2 -2 -1 0 1 3 3 4 4 2 -0 0 -0 -3 -3 1 3 5 9 10 7 4 3 5 8 8 5 2 4 10 11 9 9 11 12 13 13 12 15 17 14 8 6 7 9 10 7 6 8 9 9 10 15 22 25 12 -6 -8 -2 -10 -16 0 18 15 9 9 7 0 -1
11 3 3 1 -3 7 18 12 9 15 16 10 11 14 11 7 5 2 0 -1 0 3 3 4 7 6 4 5 5 0 -1 1 -1 -3 1 4 4 3 3 5 10 13 8 2 1 5 9 10 10 10 10 11 13 14 17 20 15 8 6 10 12 10 6 6 7 7 10 17 23 27 23 7 -7 -1 12 11 5 7 11 8 5 4 1 -1 -0
14 -2 1 3 -1 9 19 10 5 15 19 14 14 15 13 12 12 11 8 6 6 7 6 4 5 7 6 7 7 3 3 7 5 0 -1 -2 -4 -4 0 8 17 20 15 6 -2 -1 6 10 10 10 11 11 11 11 13 13 9 5 7 12 14 9 4 5 8 8 8 13 20 24 18 4 -6 -3 3 3 1 2 2 1 1 1 1 1 2
15 -3 -6 -0 6 16 17 7 5 14 17 14 15 15 14 15 15 13 13 12 11 11 10 7 5 6 6 6 5 2 2 7 10 11 10 5 -4 -9 -5 6 16 19 15 8 2 -0 2 6 8 10 11 13 14 13 11 10 10 11 11 11 12 11 8 7 9 8 6 8 14 18 16 8 0 -4 -7 -7 -1 5 5 2 1 2 2 2 3
8 1 -4 1 14 23 15 3 5 12 10 8 9 9 9 15 17 17 18 17 14 13 12 8 6 9 10 8 7 6 4 2 4 8 13 14 10 4 1 5 11 13 7 4 7 8 2 4 11 13 8 10 14 13 11 11 9 5 6 10 13 15 14 14 14 13 10 8 8 9 8 7 5 3 2 4 6 6 3 2 3 4 5 7 10
-9 -2 3 11 23 25 12 3 6 9 7 4 2 1 3 8 13 17 20 19 17 16 13 8 9 16 20 20 20 19 11 1 0 8 13 14 15 15 10 5 9 14 6 -2 3 11 7 4 9 10 6 6 5 -1 1 9 11 9 13 20 24 28 31 26 18 13 10 9 7 7 6 5 5 5 5 4 4 4 3 4 7 9 10 12 12
-17 -11 2 19 28 18 5 1 3 4 5 4 1 0 4 5 6 12 16 15 15 16 15 10 7 8 13 22 30 30 19 8 8 16 20 16 15 19 16 6 7 18 17 5 3 11 12 7 7 8 7 6 3 -4 -4 7 17 20 16 9 7 12 16 11 4 3 5 6 7 8 8 6 4 5 6 5 5 7 8 8 9 8 6 6 8
-8 -16 -11 12 25 13 -1 -1 -2 -4 2 8 7 8 10 6 3 7 10 10 10 12 13 13 10 7 10 18 22 20 16 15 18 20 17 12 11 15 15 10 9 17 21 14 8 11 11 5 2 6 7 7 6 1 -3 1 10 8 3 13 29 28 11 1 3 5 4 7 10 8 6 6 5 4 6 7 7 9 9 7 5 5 5 4 3
6 -10 -16 3 20 11 -5 -6 -4 -3 2 8 10 13 15 11 6 7 8 8 9 10 9 10 10 11 12 15 14 12 11 11 13 15 13 11 11 12 14 14 12 13 19 18 11 11 16 12 4 3 6 8 11 8 -0 -1 2 -6 -8 19 44 26 -7 -9 8 10 7 18 25 15 6 7 8 6 6 7 5 5 6 7 8 12 15 13 9
18 4 -6 2 15 11 -2 -7 -5 -3 0 3 6 11 15 13 8 7 8 8 9 10 10 10 10 10 11 10 9 13 14 11 8 8 8 9 10 10 11 12 10 12 23 24 10 4 11 13 10 13 16 13 12 11 4 -0 2 -4 -11 0 9 -5 -18 -3 14 7 1 10 12 0 -4 4 6 3 3 4 2 4 8 9 9 12 18 20 18
24 19 7 -5 -9 -10 -6 -0 0 -5 -6 -1 5 8 10 10 8 8 8 9 9 8 9 9 8 10 13 13 8 6 7 9 8 5 4 10 13 10 9 12 11 11 19 21 11 4 6 6 7 14 17 13 14 16 11 8 12 10 0 -3 1 1 4 9 8 1 1 5 2 -2 2 7 4 -1 2 7 11 15 15 9 4 7 14 19 18
22 26 20 3 -16 -23 -15 -1 5 1 -2 -0 1 0 0 4 8 8 7 7 8 8 7 9 10 10 10 12 12 11 9 10 12 11 13 19 18 9 4 6 7 11 20 22 11 1 -1 0 2 3 3 5 10 8 3 9 24 26 14 6 6 5 3 0 -1 1 4 3 -0 -0 3 4 3 4 5 8 10 11 8 3 2 5 11 17 18
21 26 26 19 9 1 -3 -1 4 8 7 1 -5 -7 -6 -2 6 11 11 9 11 10 4 1 7 14 16 14 10 6 1 -0 4 12 22 29 26 19 14 9 3 5 16 21 14 7 5 5 6 6 4 4 5 -1 -4 6 19 19 10 7 7 3 -0 1 4 5 3 2 3 4 3 4 7 7 5 4 6 7 9 13 13 7 3 6 11
22 26 26 26 25 22 13 2 -2 -3 -10 -22 -24 -13 -3 -2 2 10 13 13 18 27 27 16 8 10 16 19 15 12 12 13 11 15 25 30 24 19 21 21 15 14 16 11 7 12 16 10 8 15 15 6 3 8 12 10 7 6 7 7 5 2 1 2 2 0 -1 0 1 1 1 4 7 3 -1 1 6 8 11 18 24 21 15 8 4
Height
5914 5916 5918 5919 5921 5923 5925 5927 5929 5931 5932 5934 5936 5937 5938 5940 5941 5942 5943 5944 5945 5947 5948 5949 5950 5952 5953 5954 5955 5956 5957 5957 5958 5959 5960 5961 5961 5962 5963 5963 5964 5965 5965 5966 5966 5966 5966 5966 5966 5966 5966 5967 5966 5966 5966 5967 5967 5968 5969 5969 5969 5969 5969 5969 5969 5969 5969 5969 5969 5968 5968 5968 5967 5967 5967 5967 5966 5966 5965 5965 5965 5965 5964 5963 5963
5912 5914 5916 5918 5919 5921 5923 5925 5927 5929 5931 5932 5934 5935 5936 5938 5939 5941 5943 5944 5945 5946 5947 5948 5949 5951 5952 5953 5954 5955 5956 5956 5957 5959 5960 5960 5961 5962 5963 5963 5964 5965 5965 5966 5966 5966 5966 5966 5966 5966 5966 5966 5966 5966 5966 5966 5967 5968 5968 5968 5968 5969 5969 5969 5969 5969 5969 5969 5968 5968 5968 5968 5967 5967 5967 5967 5966 5966 5965 5965 5965 5965 5964 5963 5963
5909 5911 5913 5915 5917 5919 5920 5922 5924 5927 5929 5931 5932 5933 5934 5935 5937 5939 5941 5942 5943 5945 5945 5946 5948 5949 5951 5952 5953 5954 5955 5955 5956 5957 5959 5960 5961 5962 5962 5963 5964 5964 5965 5966 5966 5966 5966 5966 5966 5966 5966 5965 5965 5965 5966 5966 5967 5967 5968 5968 5968 5968 5968 5968 5968 5968 5968 5968 5968 5968 5968 5967 5967 5967 5967 5966 5966 5966 5965 5965 5965 5964 5964 5964 5963
5906 5908 5910 5912 5914 5916 5918 5920 5922 5925 5927 5929 5931 5932 5933 5934 5935 5937 5938 5940 5942 5943 5944 5945 5946 5948 5949 5950 5951 5952 5953 5954 5955 5956 5957 5958 5960 5960 5961 5962 5963 5964 5964 5965 5965 5966 5965 5965 5965 5965 5965 5965 5965 5965 5965 5966 5966 5966 5967 5967 5967 5967 5968 5968 5968 5968 5968 5968 5968 5968 5967 5967 5967 5966 5966 5966 5966 5966 5965 5965 5965 5965 5964 5964 5963
5903 5905 5908 5909 5911 5913 5916 5918 5920 5923 5926 5928 5929 5931 5932 5933 5934 5935 5936 5938 5940 5941 5943 5944 5945 5946 5947 5948 5949 5951 5952 5953 5954 5955 5956 5957 5958 5959 5960 5961 5962 5963 5963 5964 5964 5965 5965 5965 5965 5965 5965 5965 5965 5965 5965 5965 5965 5966 5966 5966 5966 5967 5967 5967 5967 5967 5967 5967 5967 5967 5967 5966 5966 5966 5966 5966 5966 5966 5965 5965 5965 5965 5964 5963 5962
5901 5903 5905 5906 5909 5911 5913 5916 5919 5921 5924 5925 5927 5929 5930 5932 5934 5935 5936 5936 5938 5939 5941 5942 5943 5944 5945 5946 5947 5949 5950 5951 5952 5953 5954 5956 5957 5958 5959 5960 5961 5962 5962 5963 5963 5964 5964 5964 5964 5965 5965 5964 5964 5964 5964 5964 5964 5965 5965 5965 5965 5966 5966 5966 5966 5966 5966 5966 5966 5966 5966 5965 5965 5965 5965 5965 5966 5965 5965 5965 5964 5964 5964 5962 5961
5898 5900 5902 5904 5907 5909 5912 5915 5917 5919 5922 5923 5925 5927 5929 5931 5933 5934 5935 5936 5937 5938 5940 5941 5942 5942 5943 5944 5945 5947 5948 5949 5950 5952 5953 5954 5956 5957 5958 5959 5960 5961 5961 5961 5962 5962 5963 5963 5964 5964 5964 5964 5964 5964 5964 5964 5964 5964 5964 5964 5964 5965 5965 5965 5965 5965 5965 5965 5965 5964 5964 5964 5964 5965 5965 5965 5965 5965 5965 5964 5964 5964 5963 5962 5960
5894 5896 5898 5901 5904 5907 5910 5912 5914 5916 5918 5920 5922 5924 5927 5929 5931 5932 5933 5935 5936 5937 5938 5939 5940 5941 5941 5942 5943 5945 5946 5947 5948 5950 5951 5953 5954 5955 5957 5957 5958 5959 5960 5960 5960 5961 5961 5962 5962 5963 5963 5963 5963 5963 5963 5963 5963 5963 5963 5963 5963 5963 5964 5964 5964 5964 5964 5964 5964 5963 5963 5963 5963 5964 5964 5964 5965 5964 5964 5964 5963 5962 5962 5961 5960
5889 5891 5894 5897 5900 5903 5906 5908 5911 5913 5915 5917 5919 5922 5924 5926 5928 5929 5931 5933 5935 5936 5937 5937 5938 5939 5940 5941 5942 5943 5944 5945 5946 5948 5949 5951 5952 5953 5955 5956 5957 5957 5958 5959 5959 5959 5960 5960 5961 5961 5961 5962 5962 5962 5962 5962 5962 5962 5962 5962 5962 5962 5962 5962 5962 5962 5962 5962 5962 5962 5962 5962 5963 5963 5964 5964 5964 5964 5963 5962 5961 5960 5959 5959 5960
5885 5886 5889 5892 5895 5898 5901 5905 5908 5910 5913 5915 5918 5920 5921 5923 5925 5927 5929 5930 5932 5933 5935 5936 5937 5938 5939 5940 5941 5942 5942 5943 5944 5945 5946 5948 5950 5951 5952 5954 5955 5955 5956 5957 5958 5958 5958 5958 5959 5959 5959 5960 5960 5960 5960 5961 5960 5960 5960 5960 5961 5961 5960 5961 5961 5960 5961 5961 5961 5961 5961 5961 5962 5963 5963 5963 5963 5963 5962 5961 5960 5959 5957 5957 5958
5889 5889 5889 5889 5890 5894 5897 5900 5903 5906 5909 5912 5914 5916 5918 5921 5923 5925 5926 5928 5929 5930 5932 5934 5936 5937 5937 5938 5939 5940 5941 5941 5941 5942 5943 5945 5947 5948 5950 5951 5952 5953 5954 5955 5956 5956 5956 5957 5957 5957 5958 5958 5958 5958 5958 5959 5959 5958 5958 5958 5959 5959 5959 5959 5959 5958 5959 5959 5959 5959 5960 5960 5961 5962 5962 5962 5962 5961 5960 5960 5958 5958 5957 5956 5956
5889 5892 5892 5889 5888 5889 5891 5894 5897 5900 5903 5906 5908 5911 5913 5916 5919 5922 5924 5925 5926 5927 5929 5931 5933 5934 5935 5936 5938 5939 5939 5939 5939 5940 5941 5942 5944 5945 5947 5948 5949 5951 5952 5953 5953 5954 5955 5955 5955 5955 5956 5956 5956 5956 5957 5957 5957 5957 5957 5956 5957 5957 5957 5957 5957 5956 5957 5957 5957 5958 5958 5958 5960 5961 5961 5961 5960 5959 5958 5958 5957 5957 5956 5956 5956
5881 5887 5892 5893 5891 5889 5886 5888 5891 5893 5896 5900 5903 5905 5908 5911 5914 5918 5920 5922 5923 5925 5927 5929 5930 5931 5933 5934 5936 5936 5937 5937 5937 5937 5938 5939 5940 5942 5944 5945 5947 5948 5949 5950 5951 5952 5953 5953 5954 5954 5954 5954 5954 5954 5955 5955 5955 5955 5955 5955 5955 5955 5955 5955 5954 5954 5955 5955 5955 5956 5956 5956 5958 5959 5959 5959 5958 5957 5956 5956 5956 5955 5955 5955 5955
5878 5882 5886 5890 5892 5891 5888 5887 5889 5889 5891 5894 5898 5901 5904 5907 5910 5913 5915 5917 5920 5922 5924 5926 5927 5928 5930 5932 5933 5934 5934 5935 5935 5935 5935 5936 5937 5939 5940 5942 5943 5945 5946 5947 5948 5950 5950 5951 5952 5952 5952 5953 5953 5953 5953 5953 5953 5953 5953 5953 5953 5953 5953 5953 5953 5952 5953 5953 5954 5954 5954 5955 5956 5957 5957 5956 5955 5955 5955 5955 5954 5954 5954 5954 5953
5878 5879 5881 5884 5887 5890 5892 5892 5891 5890 5889 5890 5893 5897 5901 5904 5906 5908 5910 5913 5916 5919 5921 5922 5924 5925 5927 5928 5930 5931 5932 5932 5932 5933 5933 5933 5934 5935 5937 5938 5940 5942 5943 5945 5946 5947 5948 5949 5950 5950 5950 5951 5951 5951 5951 5951 5951 5951 5951 5951 5951 5951 5951 5951 5951 5950 5951 5951 5952 5952 5952 5953 5953 5954 5954 5954 5953 5953 5953 5953 5952 5952 5952 5952 5951
5875 5877 5878 5880 5882 5885 5888 5890 5892 5891 5889 5888 5890 5893 5897 5900 5903 5905 5906 5908 5911 5914 5916 5919 5921 5922 5923 5925 5927 5928 5929 5929 5930 5930 5931 5931 5931 5932 5934 5936 5937 5939 5940 5942 5943 5944 5945 5946 5947 5947 5948 5948 5949 5949 5949 5949 5949 5949 5949 5949 5949 5949 5949 5949 5949 5949 5949 5950 5950 5951 5951 5951 5951 5951 5951 5951 5951 5951 5951 5951 5950 5950 5950 5949 5948
5870 5873 5875 5876 5877 5878 5880 5883 5887 5889 5889 5888 5889 5891 5893 5896 5898 5900 5902 5905 5907 5910 5912 5915 5917 5918 5919 5921 5923 5925 5926 5926 5927 5928 5928 5928 5929 5930 5932 5933 5934 5936 5937 5938 5939 5940 5941 5942 5943 5944 5945 5945 5945 5945 5945 5946 5947 5947 5947 5946 5946 5947 5947 5947 5947 5947 5948 5948 5948 5949 5948 5948 5948 5948 5948 5948 5948 5948 5949 5948 5947 5947 5947 5947 5946
5866 5868 5870 5871 5872 5874 5875 5878 5882 5885 5888 5888 5888 5889 5890 5892 5894 5896 5899 5901 5903 5905 5907 5909 5912 5914 5915 5917 5919 5921 5922 5923 5923 5924 5925 5925 5927 5928 5930 5931 5931 5933 5934 5935 5935 5936 5937 5938 5939 5940 5941 5941 5941 5941 5942 5943 5944 5944 5944 5943 5944 5944 5944 5944 5945 5946 5946 5946 5946 5946 5946 5945 5945 5945 5945 5945 5946 5946 5946 5945 5944 5944 5944 5944 5943
5862 5864 5867 5869 5871 5872 5874 5877 5880 5883 5886 5887 5887 5887 5887 5889 5891 5892 5895 5898 5900 5901 5903 5905 5907 5909 5911 5913 5915 5917 5918 5919 5920 5921 5922 5922 5924 5926 5927 5928 5929 5930 5931 5932 5932 5933 5934 5935 5935 5936 5937 5937 5937 5937 5937 5939 5940 5940 5940 5940 5941 5942 5941 5941 5943 5944 5944 5944 5944 5943 5943 5942 5942 5942 5942 5942 5942 5943 5943 5942 5942 5942 5942 5941 5941
5858 5861 5863 5866 5868 5870 5872 5875 5878 5881 5884 5885 5885 5885 5885 5886 5888 5890 5892 5894 5896 5897 5899 5901 5903 5905 5907 5909 5910 5912 5914 5914 5916 5917 5918 5919 5921 5923 5924 5925 5927 5927 5928 5928 5929 5930 5931 5931 5932 5932 5933 5933 5932 5932 5933 5935 5936 5937 5936 5937 5938 5938 5937 5939 5941 5941 5941 5941 5941 5940 5940 5939 5939 5939 5939 5939 5940 5940 5940 5940 5939 5939 5939 5939 5939
5854 5857 5859 5862 5865 5867 5869 5871 5875 5878 5881 5882 5882 5883 5883 5884 5886 5887 5889 5891 5892 5894 5896 5898 5900 5902 5903 5905 5906 5908 5910 5911 5912 5914 5915 5917 5918 5919 5920 5922 5923 5923 5924 5925 5926 5927 5927 5928 5928 5928 5928 5928 5928 5928 5929 5930 5932 5933 5934 5934 5935 5934 5934 5936 5938 5938 5938 5939 5938 5938 5937 5937 5936 5936 5936 5937 5937 5937 5937 5937 5936 5936 5936 5936 5936
5850 5852 5855 5858 5861 5864 5866 5868 5870 5874 5876 5878 5880 5881 5882 5882 5884 5885 5886 5888 5890 5892 5894 5896 5898 5899 5900 5902 5903 5905 5906 5907 5908 5910 5912 5914 5915 5916 5917 5918 5918 5918 5920 5922 5923 5923 5923 5923 5923 5923 5923 5923 5923 5923 5924 5926 5928 5929 5930 5931 5931 5930 5932 5933 5934 5935 5935 5936 5935 5935 5935 5934 5934 5934 5934 5934 5934 5934 5934 5934 5933 5933 5933 5933 5933
5846 5849 5851 5854 5857 5859 5861 5863 5865 5868 5871 5874 5877 5878 5879 5880 5882 5883 5884 5886 5887 5889 5891 5893 5895 5897 5898 5899 5901 5902 5902 5904 5905 5907 5909 5910 5911 5912 5913 5914 5914 5914 5916 5918 5919 5919 5919 5919 5919 5919 5919 5919 5919 5919 5920 5921 5923 5925 5926 5927 5927 5928 5929 5930 5930 5931 5931 5932 5932 5932 5932 5931 5931 5931 5931 5931 5931 5931 5931 5930 5930 5930 5930 5930 5930
5842 5845 5847 5849 5852 5855 5857 5858 5860 5862 5865 5869 5872 5874 5876 5877 5879 5881 5882 5884 5885 5887 5888 5890 5893 5895 5896 5897 5898 5899 5900 5901 5902 5904 5905 5906 5907 5908 5909 5910 5911 5911 5912 5914 5914 5914 5914 5914 5914 5914 5914 5915 5915 5915 5916 5917 5919 5921 5922 5923 5924 5925 5926 5927 5927 5927 5927 5928 5928 5928 5928 5927 5927 5927 5927 5927 5927 5927 5927 5926 5926 5926 5926 5927 5927
5838 5841 5843 5845 5848 5850 5852 5854 5855 5858 5861 5864 5868 5871 5872 5873 5875 5877 5879 5881 5883 5885 5887 5888 5890 5892 5894 5895 5896 5897 5898 5898 5900 5901 5902 5903 5904 5905 5906 5907 5907 5907 5908 5910 5910 5909 5909 5909 5910 5910 5911 5911 5911 5911 5911 5913 5914 5916 5917 5919 5920 5922 5923 5923 5923 5923 5924 5924 5924 5923 5923 5923 5923 5923 5923 5923 5923 5923 5923 5922 5922 5922 5923 5923 5923
5833 5836 5838 5840 5843 5846 5848 5850 5852 5854 5857 5860 5863 5866 5868 5870 5871 5873 5875 5877 5880 5883 5885 5886 5888 5890 5891 5893 5894 5895 5895 5896 5897 5898 5899 5900 5901 5902 5902 5902 5903 5903 5904 5905 5905 5904 5904 5905 5905 5906 5907 5907 5907 5907 5907 5908 5908 5911 5913 5915 5917 5918 5919 5919 5919 5919 5920 5920 5919 5919 5918 5918 5918 5918 5919 5919 5919 5919 5919 5919 5918 5919 5919 5919 5919
5828 5831 5833 5835 5838 5841 5843 5845 5847 5849 5852 5855 5858 5861 5863 5865 5867 5869 5871 5874 5877 5880 5882 5884 5885 5887 5889 5890 5891 5891 5893 5894 5895 5896 5897 5898 5898 5898 5897 5897 5898 5898 5899 5901 5900 5899 5898 5899 5900 5900 5901 5901 5902 5903 5903 5903 5904 5906 5909 5910 5912 5913 5914 5914 5914 5915 5916 5915 5914 5914 5913 5913 5914 5914 5913 5914 5914 5915 5915 5915 5915 5915 5915 5915 5915
5823 5826 5828 5831 5833 5836 5838 5840 5841 5843 5846 5849 5852 5855 5858 5861 5863 5865 5868 5870 5873 5876 5878 5880 5882 5885 5886 5887 5887 5888 5889 5891 5892 5893 5894 5894 5893 5892 5892 5893 5893 5893 5894 5895 5894 5892 5892 5894 5895 5896 5896 5897 5897 5898 5899 5899 5900 5902 5904 5905 5906 5908 5908 5909 5910 5911 5911 5910 5910 5909 5909 5909 5909 5909 5909 5909 5910 5910 5910 5910 5910 5911 5911 5911 5911
5818 5821 5823 5826 5828 5830 5832 5835 5837 5839 5841 5843 5846 5850 5853 5856 5859 5861 5864 5866 5869 5871 5874 5876 5879 5881 5882 5882 5883 5884 5886 5889 5890 5889 5889 5889 5888 5888 5888 5889 5889 5889 5890 5890 5888 5886 5888 5891 5892 5893 5892 5893 5893 5894 5895 5896 5897 5898 5899 5900 5902 5903 5904 5904 5905 5906 5906 5905 5905 5905 5905 5905 5904 5904 5904 5905 5905 5905 5905 5905 5905 5906 5906 5907 5907
5812 5816 5818 5821 5823 5825 5827 5830 5832 5835 5837 5839 5842 5846 5850 5852 5855 5857 5860 5862 5864 5866 5869 5872 5874 5876 5877 5879 5880 5882 5884 5885 5885 5884 5885 5885 5885 5884 5885 5885 5885 5886 5886 5885 5883 5883 5886 5888 5889 5889 5889 5889 5889 5890 5891 5893 5893 5894 5894 5895 5897 5899 5900 5901 5901 5902 5901 5901 5901 5900 5900 5900 5900 5900 5900 5900 5900 5900 5900 5900 5900 5901 5901 5901 5901
5806 5810 5813 5815 5818 5820 5822 5825 5828 5830 5833 5835 5838 5842 5846 5848 5850 5852 5855 5857 5860 5862 5865 5868 5870 5871 5873 5876 5877 5878 5879 5880 5880 5880 5881 5881 5881 5880 5881 5881 5881 5882 5882 5880 5880 5882 5884 5885 5885 5885 5885 5884 5885 5885 5887 5888 5889 5889 5889 5890 5893 5895 5896 5897 5898 5897 5897 5897 5896 5896 5895 5895 5895 5894 5894 5894 5894 5895 5895 5896 5896 5896 5896 5896 5896
5800 5803 5807 5810 5812 5815 5817 5820 5823 5826 5828 5831 5834 5837 5840 5842 5845 5848 5851 5853 5856 5858 5861 5863 5865 5867 5869 5871 5872 5873 5874 5874 5874 5875 5876 5876 5876 5876 5876 5876 5876 5876 5876 5875 5877 5880 5882 5882 5882 5882 5881 5881 5881 5882 5883 5884 5884 5884 5884 5886 5888 5891 5892 5893 5893 5893 5893 5893 5892 5891 5891 5890 5888 5886 5886 5887 5888 5889 5890 5890 5890 5891 5891 5891 5891
5793 5797 5800 5803 5807 5809 5812 5815 5819 5822 5824 5826 5829 5832 5834 5837 5840 5844 5846 5848 5851 5853 5855 5857 5859 5861 5863 5865 5866 5867 5868 5868 5868 5869 5870 5870 5871 5871 5870 5870 5870 5870 5870 5872 5875 5878 5879 5879 5879 5879 5878 5878 5878 5878 5878 5879 5880 5880 5881 5883 5885 5886 5887 5888 5889 5889 5890 5890 5889 5887 5886 5884 5882 5880 5882 5883 5882 5882 5884 5885 5886 5886 5886 5886 5886
5786 5790 5793 5797 5800 5804 5806 5809 5813 5816 5819 5821 5824 5826 5829 5832 5835 5838 5841 5843 5845 5848 5850 5853 5855 5856 5857 5858 5859 5861 5862 5862 5863 5863 5864 5864 5865 5865 5864 5863 5864 5866 5867 5869 5872 5874 5875 5875 5876 5875 5875 5875 5874 5873 5874 5875 5876 5876 5877 5878 5879 5880 5881 5882 5882 5883 5884 5884 5883 5883 5882 5882 5881 5881 5881 5880 5877 5876 5878 5880 5881 5881 5881 5881 5880
5779 5783 5787 5790 5794 5798 5800 5803 5807 5810 5813 5816 5819 5821 5824 5827 5829 5832 5835 5838 5840 5842 5845 5848 5849 5851 5852 5854 5855 5856 5857 5857 5857 5858 5858 5858 5859 5858 5857 5857 5860 5862 5863 5865 5867 5869 5869 5870 5870 5869 5869 5870 5869 5869 5870 5871 5871 5871 5872 5872 5873 5874 5875 5875 5875 5875 5875 5875 5875 5875 5875 5876 5878 5878 5878 5877 5875 5873 5874 5875 5875 5876 5876 5876 5875
5773 5777 5780 5784 5788 5791 5794 5797 5801 5804 5807 5810 5813 5816 5819 5821 5824 5827 5830 5832 5834 5837 5840 5842 5843 5845 5847 5849 5851 5852 5852 5852 5852 5852 5852 5852 5852 5852 5851 5853 5857 5858 5858 5860 5862 5862 5863 5863 5863 5862 5863 5864 5864 5865 5865 5866 5865 5866 5866 5867 5868 5869 5869 5869 5869 5869 5868 5869 5870 5869 5868 5869 5871 5872 5874 5875 5871 5868 5868 5869 5870 5871 5871 5870 5870
5767 5770 5774 5777 5781 5784 5788 5791 5795 5798 5801 5804 5807 5810 5813 5816 5818 5820 5823 5826 5829 5832 5834 5836 5837 5839 5841 5843 5845 5846 5847 5847 5846 5846 5846 5847 5847 5848 5848 5850 5852 5852 5852 5854 5855 5856 5856 5857 5855 5855 5857 5859 5858 5859 5860 5860 5860 5860 5861 5862 5863 5864 5864 5864 5863 5863 5863 5865 5866 5866 5866 5866 5867 5868 5869 5869 5865 5863 5864 5865 5865 5866 5866 5865 5864
5761 5764 5768 5771 5775 5778 5781 5785 5788 5791 5794 5797 5800 5804 5807 5810 5811 5813 5816 5820 5824 5826 5828 5829 5831 5833 5835 5837 5838 5839 5840 5840 5840 5840 5841 5843 5843 5844 5845 5846 5846 5846 5847 5848 5849 5849 5850 5850 5849 5850 5852 5852 5852 5853 5855 5855 5855 5856 5857 5857 5857 5857 5858 5858 5858 5858 5859 5861 5862 5862 5863 5863 5863 5863 5862 5861 5860 5859 5860 5860 5860 5860 5860 5859 5859
5754 5758 5762 5765 5769 5772 5775 5778 5781 5784 5787 5790 5794 5797 5801 5804 5806 5808 5811 5814 5817 5820 5822 5823 5825 5827 5829 5831 5831 5831 5832 5832 5834 5835 5837 5837 5838 5839 5839 5839 5840 5841 5843 5843 5843 5844 5844 5844 5845 5845 5846 5846 5846 5848 5850 5851 5852 5852 5852 5852 5852 5852 5852 5852 5852 5853 5854 5856 5857 5857 5857 5858 5858 5857 5856 5856 5856 5855 5856 5856 5855 5855 5854 5853 5853
5747 5752 5755 5759 5763 5766 5769 5771 5774 5777 5780 5784 5787 5790 5794 5797 5800 5803 5806 5809 5811 5814 5815 5816 5818 5821 5823 5824 5824 5824 5824 5825 5826 5828 5829 5830 5830 5832 5833 5833 5834 5837 5838 5838 5838 5839 5839 5840 5840 5840 5840 5841 5842 5843 5845 5846 5847 5846 5845 5846 5847 5847 5846 5845 5846 5847 5848 5850 5851 5852 5852 5853 5853 5852 5852 5852 5851 5849 5849 5850 5849 5849 5848 5848 5847
5740 5745 5749 5752 5756 5760 5762 5764 5767 5770 5774 5777 5781 5784 5788 5791 5794 5797 5800 5803 5805 5807 5809 5810 5812 5814 5816 5817 5818 5817 5816 5816 5818 5819 5820 5822 5823 5825 5826 5828 5830 5831 5832 5832 5833 5834 5834 5834 5835 5835 5836 5837 5837 5838 5840 5841 5841 5841 5841 5839 5839 5838 5838 5839 5840 5842 5842 5843 5845 5846 5846 5847 5847 5847 5846 5846 5845 5844 5844 5844 5844 5844 5843 5842 5841
5732 5737 5741 5745 5749 5753 5756 5758 5761 5764 5768 5772 5775 5779 5782 5785 5788 5791 5794 5797 5799 5801 5802 5803 5805 5807 5808 5809 5810 5809 5808 5809 5811 5812 5813 5815 5817 5818 5819 5821 5824 5825 5826 5827 5828 5828 5827 5829 5830 5830 5831 5831 5831 5832 5834 5836 5836 5836 5835 5833 5832 5833 5834 5834 5835 5837 5837 5837 5839 5840 5840 5841 5841 5841 5841 5841 5840 5839 5839 5839 5838 5838 5837 5835 5834
5725 5730 5734 5738 5742 5746 5749 5752 5755 5758 5762 5766 5769 5772 5775 5778 5781 5785 5788 5791 5793 5795 5795 5796 5797 5800 5801 5801 5801 5800 5800 5802 5804 5805 5806 5808 5810 5811 5812 5814 5817 5819 5820 5821 5822 5822 5822 5823 5824 5825 5825 5824 5823 5824 5827 5830 5831 5831 5829 5826 5825 5827 5829 5830 5831 5831 5831 5831 5832 5833 5833 5834 5835 5835 5834 5834 5834 5833 5832 5831 5830 5829 5829 5827 5826
5718 5723 5727 5731 5735 5739 5742 5745 5749 5752 5755 5758 5762 5765 5768 5771 5775 5778 5781 5784 5786 5787 5788 5789 5790 5792 5793 5793 5792 5792 5793 5795 5797 5799 5801 5803 5804 5805 5805 5807 5809 5812 5814 5815 5816 5816 5816 5817 5817 5818 5819 5818 5816 5816 5819 5821 5822 5823 5823 5822 5820 5820 5821 5823 5824 5825 5826 5825 5825 5825 5825 5826 5827 5827 5827 5827 5826 5825 5824 5823 5822 5821 5820 5819 5818
5710 5715 5720 5725 5729 5733 5736 5739 5742 5746 5749 5752 5755 5757 5761 5764 5768 5772 5774 5777 5779 5780 5782 5783 5784 5785 5785 5786 5786 5787 5788 5790 5792 5794 5795 5797 5797 5798 5799 5800 5803 5805 5807 5809 5809 5810 5810 5811 5811 5813 5813 5812 5810 5809 5809 5811 5813 5814 5815 5815 5813 5811 5813 5816 5818 5819 5820 5819 5818 5817 5818 5818 5819 5819 5819 5818 5818 5817 5816 5815 5814 5812 5811 5810 5808
5701 5708 5714 5719 5722 5726 5730 5733 5736 5739 5742 5746 5749 5751 5754 5757 5761 5765 5768 5770 5772 5774 5775 5776 5778 5779 5780 5780 5781 5782 5783 5784 5785 5786 5787 5789 5790 5792 5793 5794 5795 5798 5801 5802 5803 5803 5804 5805 5806 5807 5807 5807 5806 5804 5803 5803 5804 5805 5807 5807 5805 5802 5804 5809 5812 5812 5812 5811 5809 5810 5811 5812 5812 5812 5812 5811 5810 5809 5808 5806 5805 5803 5802 5800 5799
5694 5700 5706 5712 5716 5720 5723 5727 5730 5733 5736 5739 5743 5745 5748 5751 5754 5758 5761 5764 5766 5767 5768 5770 5771 5772 5773 5774 5776 5777 5777 5778 5778 5779 5780 5782 5783 5785 5786 5787 5789 5791 5794 5795 5796 5797 5798 5799 5799 5800 5801 5800 5800 5799 5798 5797 5797 5797 5799 5802 5801 5798 5799 5802 5803 5802 5803 5804 5804 5804 5805 5805 5805 5804 5804 5803 5802 5801 5800 5798 5797 5795 5793 5792 5791
5687 5693 5699 5704 5708 5713 5717 5720 5723 5726 5730 5733 5737 5740 5742 5745 5748 5751 5754 5757 5759 5761 5762 5763 5764 5765 5766 5768 5769 5770 5770 5770 5771 5772 5773 5774 5775 5776 5778 5781 5782 5783 5785 5787 5788 5789 5790 5790 5791 5792 5794 5794 5794 5793 5793 5793 5792 5791 5792 5793 5793 5792 5792 5794 5795 5794 5794 5796 5797 5797 5797 5797 5797 5796 5796 5795 5794 5793 5792 5790 5788 5787 5785 5784 5783
5680 5686 5691 5695 5700 5705 5709 5713 5716 5719 5723 5727 5731 5733 5736 5739 5741 5744 5747 5750 5752 5754 5755 5756 5757 5757 5759 5761 5763 5763 5763 5763 5764 5765 5765 5765 5767 5769 5771 5773 5774 5775 5776 5777 5778 5779 5781 5782 5783 5784 5787 5788 5788 5787 5787 5787 5788 5788 5788 5787 5787 5786 5787 5788 5789 5788 5788 5788 5788 5789 5789 5789 5789 5788 5787 5786 5785 5785 5784 5782 5781 5779 5778 5776 5775
5673 5678 5683 5687 5692 5697 5702 5706 5708 5712 5716 5721 5724 5727 5730 5733 5735 5737 5740 5742 5744 5746 5747 5748 5749 5750 5752 5753 5755 5756 5757 5757 5757 5758 5758 5758 5760 5762 5764 5764 5764 5766 5767 5768 5769 5770 5772 5774 5775 5775 5777 5779 5781 5781 5781 5782 5783 5784 5784 5783 5783 5783 5783 5784 5784 5784 5783 5782 5781 5781 5780 5780 5780 5779 5779 5778 5777 5777 5776 5775 5773 5772 5771 5769 5767
5666 5671 5676 5679 5683 5688 5694 5698 5701 5704 5708 5712 5716 5720 5724 5727 5730 5731 5733 5735 5736 5738 5739 5741 5742 5743 5744 5746 5747 5749 5750 5750 5750 5751 5751 5751 5751 5754 5756 5756 5755 5756 5758 5759 5761 5762 5764 5766 5767 5768 5770 5772 5774 5774 5774 5775 5776 5777 5778 5779 5779 5779 5779 5779 5779 5778 5777 5775 5774 5774 5773 5773 5772 5771 5771 5770 5769 5768 5767 5766 5764 5763 5762 5760 5759